Wind_Speed
17 17 16 16 15 15 15 14 14 14 14 14 14 14 14 14 14 15 15 15 16 17 17 17 18 18 19 19 20 20 19 19 20 21 21 22 22 22 23 23 23 23 23 24
18 18 18 17 17 16 16 16 16 16 16 15 15 16 16 16 16 16 17 17 17 18 18 18 19 20 20 21 22 22 22 22 23 23 24 24 24 24 24 23 24 25 26 26
18 19 19 19 18 18 18 18 17 17 17 17 17 17 17 17 18 18 18 19 19 20 20 20 20 21 21 23 23 24 24 25 25 25 25 26 25 25 25 25 26 26 27 27
20 20 20 20 19 20 20 19 19 20 20 20 19 19 19 19 19 19 19 20 21 22 23 22 23 23 24 25 25 25 25 25 26 26 26 26 27 26 27 27 28 28 28 29
21 21 21 21 20 20 20 21 21 22 22 21 21 21 21 21 20 21 21 22 22 23 23 23 24 25 26 26 26 27 27 27 28 28 28 28 28 28 29 29 28 29 29 30
23 22 22 23 22 21 21 22 21 22 22 22 22 23 23 23 23 24 24 24 24 25 25 25 26 26 26 26 27 27 27 27 28 28 29 29 29 30 30 30 30 31 31 30
24 24 24 25 24 23 23 22 21 22 22 22 23 24 24 24 24 25 25 25 26 26 26 27 27 26 26 26 26 27 27 28 28 27 28 29 29 30 31 31 31 32 31 31
25 25 25 25 24 24 23 23 23 23 23 23 24 24 25 25 25 26 27 27 27 27 27 27 27 27 27 27 27 27 28 29 29 29 29 29 30 30 30 30 30 31 30 30
26 26 26 24 24 23 23 24 24 24 24 24 25 26 26 27 27 28 28 28 28 28 28 28 28 28 28 28 28 28 29 30 30 30 30 30 30 30 30 30 30 30 29 29
26 26 26 25 24 24 24 24 24 25 25 26 26 27 27 28 28 29 30 29 29 29 29 29 29 29 29 30 29 29 30 31 31 32 32 31 30 30 30 29 29 29 29 29
26 26 26 25 25 25 26 26 25 26 26 26 27 27 28 29 29 29 29 30 30 30 30 30 30 31 31 31 31 31 31 32 32 32 32 32 31 30 30 29 29 29 29 28
27 26 26 26 26 26 26 26 26 27 27 28 28 28 29 30 30 30 30 31 31 32 31 31 31 32 32 32 31 32 32 31 31 31 31 31 30 30 29 29 29 29 29 29
27 26 26 26 26 26 27 27 28 28 29 29 30 30 31 31 32 32 33 33 33 32 32 32 32 32 31 31 31 31 31 30 30 30 30 31 31 30 29 29 29 29 29 29
27 27 26 26 26 26 27 27 28 29 30 31 31 32 32 32 33 33 32 32 33 32 31 31 32 32 31 31 31 31 31 31 31 31 31 31 31 29 28 29 29 29 30 30
28 28 27 27 27 27 27 28 29 30 31 31 31 31 32 32 32 32 32 33 33 32 32 32 32 32 31 31 31 31 31 31 31 31 31 31 30 29 28 29 29 30 30 30
28 28 27 27 27 28 28 28 29 30 30 31 31 31 31 32 32 32 33 33 33 32 32 32 31 31 31 31 31 31 30 30 31 31 31 31 30 29 29 28 28 29 30 30
27 27 27 28 28 28 28 28 29 30 30 30 30 31 31 31 31 32 32 32 32 31 31 31 31 30 30 30 30 30 30 30 30 31 31 30 30 30 30 29 28 28 29 29
27 27 27 27 28 28 28 28 28 29 29 30 30 30 30 30 30 30 30 30 30 30 30 30 30 31 30 30 29 29 29 30 31 31 31 30 30 30 30 30 29 29 29 28
26 26 26 26 26 27 28 28 28 28 28 29 29 29 29 29 29 29 29 30 30 29 29 29 29 30 29 29 29 29 29 29 29 30 30 30 30 29 30 30 29 29 28 28
26 26 26 26 26 27 27 27 27 27 27 27 27 28 28 29 29 28 28 29 28 28 28 29 28 28 28 29 29 29 29 29 28 28 29 29 29 29 29 28 28 27 26 26
24 24 25 25 26 26 26 26 26 26 26 26 27 28 28 28 28 28 28 28 28 27 27 27 28 27 28 29 28 28 28 28 28 28 28 27 27 27 26 25 25 25 25 25
23 23 23 23 23 24 24 24 25 26 26 27 27 27 27 27 27 27 27 27 27 27 27 26 26 27 27 27 27 27 27 27 27 26 26 26 25 25 25 25 25 25 25 25
20 21 21 21 21 22 22 23 24 24 25 25 25 26 26 26 26 26 25 25 26 26 26 26 26 26 26 26 26 26 26 25 25 25 25 25 25 25 25 24 24 24 25 25
20 20 19 20 20 21 22 22 22 23 23 24 25 25 25 24 25 25 25 25 25 25 25 25 25 25 25 25 25 25 25 25 25 24 24 24 24 24 24 24 24 24 23 23
18 18 19 19 20 20 20 21 21 22 22 22 23 23 23 23 24 24 24 24 23 24 24 24 25 25 24 24 24 24 24 24 24 24 24 24 24 23 23 23 23 23 23 23
17 17 18 18 19 19 20 20 20 21 21 22 22 23 23 23 23 23 23 23 23 24 24 24 23 23 23 23 23 23 24 24 24 23 23 23 22 22 22 22 22 22 22 22
17 18 18 18 18 18 18 19 19 19 21 21 21 21 21 21 22 22 22 22 23 23 23 23 23 23 23 23 23 24 23 23 23 22 22 22 21 21 21 21 21 21 21 22
Wind_Direction
237 242 244 248 250 247 249 253 257 266 270 272 273 270 275 279 280 281 285 287 288 286 286 288 287 288 290 291 292 294 294 296 297 299 299 299 299 299 299 299 298 298 298 298
240 244 246 246 246 248 251 254 259 264 267 269 270 270 272 277 279 281 284 288 290 289 288 288 288 288 290 291 292 292 292 294 296 297 297 297 297 297 298 298 297 297 297 297
243 246 249 249 248 249 252 255 257 261 266 268 269 270 273 275 277 281 283 286 289 290 290 287 286 285 286 289 290 291 292 294 295 296 296 297 297 297 297 296 296 296 296 297
244 249 252 252 251 251 252 254 257 260 265 267 269 271 274 277 277 278 281 284 286 287 288 286 284 283 284 286 288 291 291 292 293 296 296 295 294 294 295 295 295 296 296 296
246 250 255 257 256 256 256 258 260 261 264 266 268 271 272 274 277 280 282 284 286 288 286 285 285 285 285 287 289 291 292 291 293 293 293 294 293 293 294 294 296 296 296 296
247 249 254 257 258 259 260 261 261 262 264 266 269 271 273 275 277 279 280 282 284 288 289 288 288 287 288 289 289 291 293 294 295 294 294 295 295 294 294 293 295 295 294 295
248 250 254 257 259 261 260 261 261 263 264 267 270 271 274 275 275 278 279 281 284 286 288 290 288 288 289 290 289 291 293 294 296 296 296 294 294 295 295 294 295 296 295 294
247 249 253 257 260 262 261 261 262 263 266 269 271 273 275 275 274 276 279 281 282 283 284 287 287 287 288 289 290 291 292 293 295 297 296 295 295 294 294 295 295 296 296 294
247 250 255 258 260 262 263 262 263 264 265 269 271 274 275 276 276 277 279 280 281 281 283 285 286 287 288 289 290 291 292 293 294 294 295 296 296 295 295 295 296 296 296 296
247 250 253 256 258 260 262 263 264 265 267 270 273 276 278 278 279 279 280 281 282 283 284 285 285 285 287 288 289 291 291 293 294 293 293 295 295 295 294 295 296 297 296 296
248 251 253 256 258 261 262 262 263 265 267 271 275 277 279 280 282 283 283 283 284 285 285 285 284 285 286 287 288 289 292 293 294 294 293 293 293 294 294 294 295 297 298 297
249 252 255 257 260 262 263 264 265 267 269 272 275 278 281 283 283 283 284 284 285 285 285 285 285 285 286 287 289 290 292 293 294 294 293 293 293 293 295 295 295 295 295 295
250 253 256 258 260 262 264 265 266 267 270 273 276 278 281 281 282 284 285 285 284 284 284 285 285 286 288 288 290 290 291 292 292 292 292 293 294 294 293 294 294 294 294 294
251 254 257 259 261 263 265 267 268 269 272 275 277 279 280 281 282 283 284 284 284 283 282 284 285 286 286 287 288 289 289 290 290 290 291 292 293 293 292 293 294 294 294 294
252 254 258 261 263 265 266 268 269 270 272 274 277 279 281 281 283 283 284 286 285 283 283 283 284 285 286 286 286 287 288 289 289 289 290 291 292 292 291 292 293 292 293 294
254 256 258 261 264 266 267 269 271 272 273 275 277 279 280 281 283 284 284 286 286 285 284 284 284 285 286 286 286 287 287 287 287 288 289 290 291 292 292 293 293 292 293 294
254 256 259 261 264 267 269 271 272 274 275 276 277 279 281 281 283 285 286 286 287 286 286 286 285 284 285 285 286 286 286 286 287 289 290 290 291 293 294 294 294 294 294 294
254 257 259 261 264 267 268 271 273 275 277 277 278 279 281 283 285 287 288 288 288 288 287 286 285 285 286 285 286 286 286 287 288 289 289 290 291 292 293 294 294 294 294 295
256 258 261 263 265 267 267 270 272 275 277 279 280 281 284 286 287 288 288 288 288 287 287 286 286 286 285 284 285 286 287 289 290 289 289 291 292 292 292 293 294 295 294 295
258 261 263 265 268 269 271 271 273 276 279 281 282 282 285 287 288 288 289 289 288 288 288 288 286 286 284 283 285 287 289 290 291 291 291 292 291 291 292 292 293 294 294 295
258 261 263 266 269 271 272 273 275 277 280 282 284 284 285 286 288 289 289 288 288 287 288 287 287 286 286 285 286 288 289 289 291 292 292 293 293 292 292 293 293 293 294 295
259 261 264 267 269 271 273 275 276 278 280 282 283 285 286 287 288 290 290 290 288 288 288 288 287 287 288 287 288 290 290 289 290 291 292 292 292 292 292 291 292 292 293 295
263 265 265 266 268 271 274 276 278 280 281 283 284 286 288 289 289 290 290 290 290 290 290 290 290 289 288 289 290 291 290 290 291 291 291 291 292 293 292 292 292 292 293 295
263 265 266 267 269 271 273 275 277 280 282 284 285 287 288 289 290 290 290 290 289 290 292 292 291 290 291 292 291 291 291 292 292 292 292 292 293 293 293 293 293 293 294 295
261 264 268 271 272 274 275 277 280 282 283 285 286 287 288 290 291 291 290 290 290 290 292 293 294 295 294 293 293 292 292 293 294 293 293 293 292 292 293 293 293 293 294 294
262 267 271 273 275 277 278 280 282 284 285 285 287 288 288 290 292 292 291 291 290 291 291 292 293 293 293 294 295 295 294 293 293 294 294 292 292 293 295 295 295 295 295 294
263 267 271 273 274 276 278 280 284 286 286 287 287 288 289 291 293 293 293 292 291 291 291 291 292 293 293 294 295 295 294 295 294 294 293 293 292 293 295 297 297 297 295 294
Height
5885 5886 5888 5889 5891 5892 5893 5895 5896 5896 5896 5895 5894 5894 5893 5892 5892 5891 5890 5889 5888 5887 5885 5884 5883 5882 5880 5879 5877 5875 5873 5871 5870 5868 5866 5864 5862 5860 5858 5856 5854 5851 5849 5847
5881 5882 5883 5884 5886 5888 5889 5890 5891 5891 5891 5891 5890 5890 5890 5889 5888 5887 5886 5885 5884 5882 5881 5879 5878 5876 5875 5873 5872 5870 5868 5866 5864 5863 5860 5858 5856 5854 5852 5850 5848 5845 5843 5841
5876 5877 5878 5880 5882 5883 5884 5885 5886 5886 5887 5886 5886 5886 5885 5884 5884 5883 5882 5881 5879 5878 5876 5874 5873 5871 5869 5868 5866 5864 5862 5860 5858 5856 5854 5852 5850 5847 5845 5843 5841 5839 5836 5833
5871 5873 5874 5877 5876 5877 5878 5879 5880 5881 5881 5881 5881 5881 5880 5879 5879 5878 5877 5876 5874 5872 5870 5869 5867 5865 5863 5861 5859 5858 5856 5853 5852 5849 5847 5845 5842 5840 5838 5836 5834 5831 5829 5826
5866 5868 5869 5870 5870 5872 5873 5874 5875 5875 5875 5875 5875 5875 5874 5874 5873 5872 5871 5869 5868 5866 5864 5862 5860 5858 5857 5855 5853 5851 5849 5847 5844 5842 5840 5837 5835 5833 5831 5829 5826 5823 5821 5818
5860 5862 5864 5865 5865 5866 5868 5868 5869 5869 5869 5869 5869 5869 5869 5867 5867 5865 5864 5863 5861 5859 5857 5855 5853 5851 5850 5848 5846 5844 5842 5839 5837 5835 5832 5830 5828 5825 5823 5820 5818 5815 5812 5810
5854 5856 5857 5857 5858 5861 5863 5863 5862 5862 5863 5863 5863 5862 5862 5860 5859 5858 5857 5855 5854 5852 5850 5848 5846 5844 5842 5840 5839 5837 5835 5832 5830 5827 5825 5822 5820 5817 5815 5812 5809 5807 5804 5801
5847 5850 5852 5850 5852 5854 5855 5855 5855 5856 5856 5856 5856 5855 5854 5853 5852 5851 5849 5848 5846 5845 5843 5841 5839 5837 5835 5833 5831 5829 5827 5825 5822 5820 5817 5814 5812 5809 5806 5804 5801 5799 5796 5793
5841 5844 5843 5844 5845 5846 5847 5848 5848 5848 5849 5849 5848 5847 5846 5845 5844 5843 5841 5840 5838 5837 5835 5833 5831 5829 5828 5826 5823 5821 5819 5817 5815 5812 5809 5806 5804 5801 5798 5796 5793 5790 5787 5784
5833 5835 5836 5837 5838 5839 5840 5840 5841 5841 5841 5841 5840 5840 5839 5838 5836 5835 5833 5832 5830 5828 5826 5825 5823 5821 5819 5818 5816 5813 5811 5809 5806 5803 5801 5798 5795 5793 5790 5787 5785 5782 5778 5775
5826 5828 5829 5830 5831 5832 5832 5833 5833 5833 5833 5833 5832 5832 5831 5830 5828 5826 5825 5823 5821 5819 5818 5816 5814 5812 5811 5809 5807 5805 5803 5800 5798 5795 5792 5790 5787 5784 5782 5779 5776 5773 5770 5767
5819 5821 5822 5823 5824 5825 5825 5825 5825 5826 5825 5825 5824 5823 5822 5821 5820 5818 5816 5814 5812 5811 5809 5807 5805 5803 5802 5800 5798 5796 5794 5792 5789 5786 5783 5781 5778 5775 5773 5770 5767 5764 5761 5758
5811 5813 5814 5815 5816 5817 5817 5818 5818 5818 5817 5817 5816 5815 5814 5812 5811 5809 5807 5805 5803 5801 5800 5798 5796 5794 5793 5791 5789 5787 5785 5783 5780 5777 5775 5772 5769 5766 5763 5761 5758 5755 5752 5749
5804 5805 5807 5808 5809 5809 5809 5809 5809 5809 5809 5808 5807 5806 5804 5803 5801 5799 5797 5795 5793 5792 5790 5788 5787 5785 5783 5781 5780 5778 5776 5774 5771 5769 5766 5763 5760 5757 5755 5752 5749 5746 5744 5741
5796 5797 5799 5800 5800 5801 5801 5801 5801 5800 5800 5799 5798 5797 5795 5794 5792 5790 5788 5786 5784 5782 5780 5779 5777 5775 5774 5772 5770 5768 5766 5764 5762 5759 5757 5754 5751 5748 5746 5743 5740 5737 5734 5731
5788 5789 5791 5792 5792 5792 5792 5792 5792 5791 5791 5790 5789 5788 5786 5785 5783 5781 5779 5776 5774 5772 5770 5769 5767 5766 5764 5762 5760 5758 5756 5754 5752 5750 5747 5744 5742 5739 5736 5733 5731 5728 5726 5723
5780 5781 5782 5783 5783 5784 5784 5784 5783 5783 5782 5781 5780 5779 5777 5775 5774 5772 5770 5767 5765 5763 5761 5759 5758 5756 5754 5753 5751 5749 5747 5745 5743 5740 5738 5735 5732 5730 5727 5724 5722 5720 5717 5715
5772 5773 5774 5774 5775 5775 5775 5775 5775 5774 5773 5772 5771 5770 5769 5767 5765 5763 5761 5759 5757 5754 5752 5750 5748 5747 5745 5743 5741 5739 5737 5735 5733 5731 5728 5726 5723 5720 5718 5716 5714 5711 5708 5706
5763 5764 5765 5766 5766 5766 5766 5766 5766 5765 5764 5763 5763 5761 5760 5758 5756 5754 5752 5750 5748 5746 5744 5742 5740 5738 5736 5734 5732 5730 5728 5726 5724 5721 5719 5716 5714 5711 5709 5707 5705 5702 5700 5698
5756 5757 5757 5758 5758 5758 5758 5757 5757 5757 5756 5755 5754 5753 5752 5750 5748 5746 5743 5741 5739 5737 5735 5733 5731 5729 5727 5725 5723 5721 5719 5717 5714 5712 5710 5708 5705 5703 5701 5698 5696 5694 5692 5690
5748 5749 5749 5749 5750 5749 5749 5749 5749 5748 5748 5747 5745 5744 5743 5741 5739 5737 5735 5733 5731 5728 5727 5725 5723 5721 5719 5717 5715 5712 5710 5708 5706 5704 5701 5699 5697 5694 5692 5690 5688 5686 5684 5682
5741 5741 5741 5741 5741 5741 5741 5741 5740 5740 5739 5738 5737 5735 5734 5732 5731 5729 5726 5724 5722 5720 5718 5716 5714 5712 5710 5708 5706 5704 5702 5699 5697 5695 5693 5691 5688 5686 5684 5682 5680 5678 5676 5674
5734 5734 5734 5734 5734 5734 5734 5733 5733 5732 5731 5731 5729 5728 5726 5724 5722 5720 5718 5716 5714 5712 5710 5708 5706 5704 5702 5700 5698 5696 5694 5691 5689 5687 5685 5683 5681 5679 5677 5675 5673 5670 5668 5666
5727 5728 5728 5728 5728 5727 5727 5726 5726 5725 5724 5723 5722 5720 5718 5716 5714 5712 5710 5709 5707 5705 5703 5701 5699 5697 5695 5692 5690 5688 5686 5684 5682 5679 5677 5675 5673 5671 5669 5667 5665 5663 5661 5659
5721 5722 5722 5722 5721 5721 5720 5720 5719 5718 5717 5716 5714 5713 5711 5709 5707 5705 5703 5701 5699 5698 5696 5694 5692 5689 5687 5685 5683 5681 5679 5677 5675 5672 5671 5668 5666 5664 5662 5660 5658 5656 5654 5652
5715 5716 5716 5715 5715 5714 5714 5713 5712 5711 5710 5708 5707 5705 5703 5701 5699 5697 5696 5694 5692 5690 5688 5686 5684 5682 5680 5678 5676 5674 5671 5669 5667 5665 5663 5661 5659 5657 5655 5653 5651 5649 5647 5645
5709 5709 5709 5709 5708 5708 5707 5706 5705 5704 5703 5701 5700 5698 5696 5694 5692 5690 5688 5687 5685 5683 5681 5679 5677 5675 5673 5671 5669 5666 5664 5662 5660 5658 5656 5654 5652 5650 5648 5646 5644 5642 5640 5638